Home > Weather > Bamberg > Past weeks

Flag for Germany Past Weather in Bamberg, Bavaria, Germany — Yesterday and Last 2 Weeks

Now
55 °F

Light rain. Broken clouds.


Feels Like: 55 °F
Forecast: 53 / 78 °F
Wind: 1 mph from North

Location: Nuernberg

Current Time: May 27, 2016 at 6:44:56 AM

Latest Report: May 27, 2016 at 6:20 AM


Visibility: N/A

Pressure: 29.98 "Hg

Humidity: 88%

Dew Point: 52 °F

Location of BambergLocation

Past Weather in Bamberg — Graph

°F

Bamberg Temperature Yesterday

Maximum temperature yesterday: 72 °F (at 3:20 PM)
Minimum temperature yesterday: 46 °F (at 5:50 AM)
Average temperature yesterday: 60 °F

High & Low Weather Summary for the Past Weeks

 TemperatureHumidityPressure
High84 °F (May 22, 2:20 PM)100% (May 24, 11:20 AM)30.15 "Hg (May 24, 11:20 AM)
Low41 °F (May 15, 5:20 AM)23% (May 22, 5:20 PM)29.45 "Hg (May 12, 4:50 PM)
Average55 °F71%29.90 "Hg
* Reported May 12 5:20 AM — May 27 5:20 AM, Bamberg, Weather by CustomWeather, © 2016

Note: Actual official high and low records may vary slightly from our data, if they occured in-between our weather recording intervals... More about our weather records

Advertising

Bamberg Weather History for the Previous 24 Hours

Scroll right to see more
 ConditionsComfort  
Time TempWeatherWind HumidityBarometerVisibility
5:20 AM
Fri, May 27
54 °FClear.1 mph94%29.98 "Hg10 mi
4:50 AM52 °FClear.1 mph94%29.98 "Hg10 mi
4:20 AM54 °FClear.1 mph88%29.98 "Hg10 mi
3:50 AM54 °FClear.1 mph94%29.98 "Hg10 mi
3:20 AM54 °FClear.2 mph88%29.98 "Hg10 mi
2:50 AM54 °FClear.1 mph88%29.98 "Hg10 mi
2:20 AM55 °FClear.1 mph82%29.98 "Hg10 mi
1:50 AM55 °FClear.2 mph88%29.98 "Hg10 mi
1:20 AM55 °FClear.1 mph82%29.98 "Hg10 mi
12:50 AM55 °FClear.1 mph82%29.98 "Hg10 mi
12:20 AM57 °FClear.1 mph77%30.01 "Hg10 mi
11:50 PM
Thu, May 26
59 °FClear.No wind72%30.01 "Hg10 mi
11:20 PM59 °FClear.No wind72%29.98 "Hg10 mi
10:50 PM61 °FClear.2 mph68%29.98 "Hg10 mi
10:20 PM63 °FPassing clouds.3 mph64%29.98 "HgN/A
9:50 PM63 °FSunny.2 mph64%30.01 "Hg10 mi
9:20 PM64 °FSunny.2 mph60%29.98 "Hg10 mi
8:50 PM66 °FSunny.2 mph60%29.98 "Hg10 mi
8:20 PM68 °FPartly sunny.2 mph53%29.98 "HgN/A
7:50 PM70 °FPartly sunny.3 mph50%29.98 "HgN/A
7:20 PM72 °FPartly sunny.5 mph44%29.98 "HgN/A
6:50 PM72 °FPartly sunny.6 mph44%29.98 "HgN/A
6:20 PM72 °FSunny.3 mph47%29.98 "Hg10 mi
5:50 PM72 °FSunny.3 mph47%29.98 "Hg10 mi
5:20 PM72 °FPassing clouds.5 mph47%29.98 "HgN/A
4:50 PM72 °FSunny.2 mph47%30.01 "Hg10 mi
4:20 PM72 °FPassing clouds.8 mph47%30.01 "HgN/A
3:50 PM70 °FSunny.6 mph50%30.01 "Hg10 mi
3:20 PM72 °FSunny.5 mph47%30.01 "Hg10 mi
2:50 PM70 °FSunny.5 mph50%30.01 "Hg10 mi
2:20 PM70 °FPassing clouds.8 mph46%30.01 "HgN/A
1:50 PM68 °FPartly sunny.8 mph49%30.04 "HgN/A
1:20 PM68 °FPartly sunny.7 mph46%30.04 "HgN/A
12:50 PM68 °FPartly sunny.5 mph49%30.04 "HgN/A
12:20 PM68 °FPartly sunny.5 mph49%30.04 "HgN/A
11:50 AM66 °FPartly sunny.6 mph49%30.04 "HgN/A
11:20 AM64 °FPartly sunny.5 mph49%30.04 "HgN/A
10:50 AM63 °FScattered clouds.3 mph64%30.04 "HgN/A
10:20 AM61 °FPassing clouds.5 mph72%30.04 "HgN/A
9:50 AM61 °FPassing clouds.5 mph68%30.04 "HgN/A
9:20 AM59 °FPassing clouds.1 mph77%30.04 "HgN/A
8:50 AM57 °FPassing clouds.2 mph82%30.04 "HgN/A
8:20 AM55 °FScattered clouds.2 mph82%30.04 "HgN/A
7:50 AM54 °FScattered clouds.1 mph94%30.04 "HgN/A
7:20 AM52 °FSunny.No wind94%30.04 "Hg10 mi
6:50 AM48 °FLight fog.1 mph100%30.01 "HgN/A
6:20 AM48 °FLight fog.1 mph94%30.01 "HgN/A
Weather by CustomWeather, © 2016

See weather overviewHow to use our weather pages